| time (UTC) | temp F | wind direction | speed knots | gust knots | rain 1hr in | rain 24hr in | rain mn in | humidity % | barometer mb |
| 20260502214505 | 62 | 68 | 1.7 | 2.6 | 0.00 | 0.00 | 0.00 | 68 | 1016.8 |
| 20260502214004 | 62 | 62 | 1.7 | 2.6 | 0.00 | 0.00 | 0.00 | 68 | 1016.9 |
| 20260502213004 | 62 | 62 | 1.7 | 3.5 | 0.00 | 0.00 | 0.00 | 67 | 1017.0 |
| 20260502212505 | 62 | 66 | 2.6 | 4.3 | 0.00 | 0.00 | 0.00 | 67 | 1016.7 |
| 20260502212007 | 62 | 61 | 2.6 | 4.3 | 0.00 | 0.00 | 0.00 | 67 | 1016.8 |
| 20260502211505 | 62 | 58 | 1.7 | 4.3 | 0.00 | 0.00 | 0.00 | 67 | 1016.8 |
| 20260502211007 | 62 | 62 | 1.7 | 5.2 | 0.00 | 0.00 | 0.00 | 67 | 1016.8 |
| 20260502210505 | 62 | 60 | 2.6 | 5.2 | 0.00 | 0.00 | 0.00 | 67 | 1016.9 |
| 20260502210004 | 63 | 62 | 2.6 | 5.2 | 0.00 | 0.00 | 0.00 | 67 | 1016.8 |
| 20260502205505 | 63 | 64 | 1.7 | 4.3 | 0.00 | 0.00 | 0.00 | 66 | 1016.8 |
| 20260502205005 | 63 | 63 | 1.7 | 4.3 | 0.00 | 0.00 | 0.00 | 66 | 1016.8 |
| 20260502204505 | 63 | 65 | 1.7 | 4.3 | 0.00 | 0.00 | 0.00 | 67 | 1016.6 |
| 20260502203505 | 63 | 61 | 1.7 | 4.3 | 0.00 | 0.00 | 0.00 | 67 | 1016.9 |
| 20260502203004 | 63 | 53 | 2.6 | 4.3 | 0.00 | 0.00 | 0.00 | 67 | 1016.8 |
| 20260502202005 | 64 | 49 | 1.7 | 4.3 | 0.00 | 0.00 | 0.00 | 63 | 1016.7 |
| 20260502201504 | 64 | 49 | 0.9 | 2.6 | 0.00 | 0.00 | 0.00 | 64 | 1016.9 |
| 20260502201005 | 64 | 53 | 1.7 | 3.5 | 0.00 | 0.00 | 0.00 | 63 | 1016.7 |
| 20260502200005 | 64 | 58 | 1.7 | 3.5 | 0.00 | 0.00 | 0.00 | 63 | 1016.8 |
| 20260502195504 | 64 | 62 | 1.7 | 3.5 | 0.00 | 0.00 | 0.00 | 63 | 1016.6 |
| 20260502195005 | 64 | 60 | 1.7 | 4.3 | 0.00 | 0.00 | 0.00 | 62 | 1016.7 |
| 20260502194504 | 64 | 57 | 1.7 | 4.3 | 0.00 | 0.00 | 0.00 | 62 | 1016.6 |
| 20260502194005 | 65 | 55 | 2.6 | 3.5 | 0.00 | 0.00 | 0.00 | 62 | 1016.5 |
| 20260502193504 | 65 | 49 | 1.7 | 3.5 | 0.00 | 0.00 | 0.00 | 61 | 1016.7 |
| 20260502193005 | 65 | 47 | 1.7 | 2.6 | 0.00 | 0.00 | 0.00 | 61 | 1016.6 |
| 20260502192504 | 65 | 39 | 1.7 | 3.5 | 0.00 | 0.00 | 0.00 | 61 | 1016.5 |
| 20260502192005 | 65 | 37 | 1.7 | 3.5 | 0.00 | 0.00 | 0.00 | 60 | 1016.4 |
| 20260502191504 | 66 | 38 | 1.7 | 3.5 | 0.00 | 0.00 | 0.00 | 60 | 1016.4 |
| 20260502191005 | 66 | 36 | 2.6 | 4.3 | 0.00 | 0.00 | 0.00 | 60 | 1016.5 |
| 20260502190505 | 66 | 41 | 2.6 | 4.3 | 0.00 | 0.00 | 0.00 | 60 | 1016.3 |
| 20260502190005 | 66 | 35 | 1.7 | 3.5 | 0.00 | 0.00 | 0.00 | 59 | 1016.7 |
| 20260502185504 | 67 | 43 | 1.7 | 2.6 | 0.00 | 0.00 | 0.00 | 59 | 1016.5 |
| 20260502185004 | 67 | 44 | 1.7 | 3.5 | 0.00 | 0.00 | 0.00 | 59 | 1016.5 |
| 20260502184007 | 68 | 50 | 2.6 | 5.2 | 0.00 | 0.00 | 0.00 | 58 | 1016.3 |
| 20260502183504 | 68 | 49 | 2.6 | 4.3 | 0.00 | 0.00 | 0.00 | 58 | 1016.2 |
| 20260502182505 | 69 | 52 | 2.6 | 4.3 | 0.00 | 0.00 | 0.00 | 57 | 1016.2 |
| 20260502182005 | 69 | 49 | 2.6 | 4.3 | 0.00 | 0.00 | 0.00 | 57 | 1016.4 |
| 20260502181505 | 69 | 44 | 2.6 | 5.2 | 0.00 | 0.00 | 0.00 | 56 | 1016.2 |
| 20260502181005 | 70 | 33 | 2.6 | 5.2 | 0.00 | 0.00 | 0.00 | 56 | 1016.3 |
| 20260502180505 | 70 | 26 | 2.6 | 3.5 | 0.00 | 0.00 | 0.00 | 56 | 1016.3 |
| 20260502170504 | 75 | 6 | 1.7 | 4.3 | 0.00 | 0.00 | 0.00 | 43 | 1016.1 |
| 20260502164004 | 76 | 1 | 1.7 | 2.6 | 0.00 | 0.00 | 0.00 | 40 | 1016.2 |
| 20260502163504 | 76 | 356 | 1.7 | 4.3 | 0.00 | 0.00 | 0.00 | 40 | 1016.3 |
| 20260502163004 | 76 | 339 | 1.7 | 4.3 | 0.00 | 0.00 | 0.00 | 39 | 1016.5 |
| 20260502162505 | 76 | 335 | 2.6 | 4.3 | 0.00 | 0.00 | 0.00 | 39 | 1016.3 |
| 20260502162005 | 77 | 341 | 1.7 | 3.5 | 0.00 | 0.00 | 0.00 | 40 | 1016.7 |
| 20260502161505 | 77 | 344 | 1.7 | 4.3 | 0.00 | 0.00 | 0.00 | 39 | 1016.7 |
| 20260502161004 | 77 | 308 | 2.6 | 5.2 | 0.00 | 0.00 | 0.00 | 37 | 1016.7 |
| 20260502160504 | 78 | 283 | 2.6 | 5.2 | 0.00 | 0.00 | 0.00 | 36 | 1016.7 |
| 20260502152007 | 78 | 288 | 4.3 | 7.0 | 0.00 | 0.00 | 0.00 | 35 | 1016.9 |
| 20260502151504 | 79 | 278 | 4.3 | 8.7 | 0.00 | 0.00 | 0.00 | 35 | 1017.2 |
| 20260502151007 | 79 | 272 | 4.3 | 8.7 | 0.00 | 0.00 | 0.00 | 35 | 1017.2 |
| 20260502150504 | 79 | 265 | 4.3 | 8.7 | 0.00 | 0.00 | 0.00 | 35 | 1017.2 |
| 20260502123504 | 76 | 274 | 4.3 | 10.4 | 0.00 | 0.00 | 0.00 | 37 | 1019.3 |
| 20260502123004 | 77 | 281 | 3.5 | 7.8 | 0.00 | 0.00 | 0.00 | 38 | 1019.2 |
| 20260502122004 | 76 | 269 | 4.3 | 9.6 | 0.00 | 0.00 | 0.00 | 38 | 1019.3 |
| 20260502121005 | 76 | 252 | 5.2 | 11.3 | 0.00 | 0.00 | 0.00 | 37 | 1019.6 |
| 20260502120508 | 76 | 236 | 5.2 | 9.6 | 0.00 | 0.00 | 0.00 | 38 | 1019.5 |
| 20260502115504 | 75 | 223 | 5.2 | 11.3 | 0.00 | 0.00 | 0.00 | 39 | 1019.9 |
| 20260502115004 | 75 | 220 | 6.1 | 11.3 | 0.00 | 0.00 | 0.00 | 37 | 1019.7 |
| 20260502114005 | 75 | 225 | 5.2 | 8.7 | 0.00 | 0.00 | 0.00 | 38 | 1019.9 |
| 20260502113504 | 75 | 232 | 4.3 | 9.6 | 0.00 | 0.00 | 0.00 | 39 | 1020.0 |
| 20260502113004 | 75 | 232 | 4.3 | 9.6 | 0.00 | 0.00 | 0.00 | 39 | 1020.1 |
| 20260502112504 | 75 | 238 | 5.2 | 8.7 | 0.00 | 0.00 | 0.00 | 39 | 1020.3 |
| 20260502112005 | 75 | 236 | 5.2 | 8.7 | 0.00 | 0.00 | 0.00 | 40 | 1020.2 |
| 20260502111505 | 75 | 254 | 3.5 | 7.8 | 0.00 | 0.00 | 0.00 | 39 | 1020.4 |
| 20260502111005 | 74 | 270 | 2.6 | 6.1 | 0.00 | 0.00 | 0.00 | 41 | 1020.4 |
| 20260502110504 | 74 | 277 | 3.5 | 7.8 | 0.00 | 0.00 | 0.00 | 41 | 1020.5 |
| 20260502110005 | 74 | 276 | 3.5 | 7.8 | 0.00 | 0.00 | 0.00 | 41 | 1020.5 |
| 20260502105505 | 74 | 275 | 3.5 | 7.0 | 0.00 | 0.00 | 0.00 | 43 | 1020.6 |
| 20260502105004 | 73 | 278 | 4.3 | 8.7 | 0.00 | 0.00 | 0.00 | 43 | 1020.7 |
| 20260502104504 | 73 | 260 | 4.3 | 8.7 | 0.00 | 0.00 | 0.00 | 43 | 1020.8 |
| 20260502104004 | 73 | 252 | 5.2 | 8.7 | 0.00 | 0.00 | 0.00 | 42 | 1020.8 |
| 20260502103504 | 73 | 248 | 4.3 | 8.7 | 0.00 | 0.00 | 0.00 | 43 | 1020.9 |
| 20260502103005 | 73 | 243 | 3.5 | 7.0 | 0.00 | 0.00 | 0.00 | 43 | 1020.9 |
| 20260502102505 | 73 | 247 | 4.3 | 7.0 | 0.00 | 0.00 | 0.00 | 43 | 1020.9 |
| 20260502102004 | 72 | 247 | 3.5 | 7.0 | 0.00 | 0.00 | 0.00 | 45 | 1020.9 |
| 20260502101004 | 72 | 248 | 2.6 | 7.0 | 0.00 | 0.00 | 0.00 | 47 | 1021.3 |
| 20260502100505 | 72 | 251 | 3.5 | 7.0 | 0.00 | 0.00 | 0.00 | 47 | 1021.2 |
| 20260502091504 | 70 | 267 | 3.5 | 6.1 | 0.00 | 0.00 | 0.00 | 46 | 1021.7 |
| 20260502091005 | 69 | 259 | 3.5 | 10.4 | 0.00 | 0.00 | 0.00 | 46 | 1021.8 |
| 20260502090504 | 69 | 246 | 5.2 | 10.4 | 0.00 | 0.00 | 0.00 | 46 | 1021.8 |
| 20260502071504 | 66 | 237 | 3.5 | 7.8 | 0.00 | 0.00 | 0.00 | 50 | 1022.0 |
| 20260502071004 | 66 | 229 | 1.7 | 5.2 | 0.00 | 0.00 | 0.00 | 53 | 1022.0 |
| 20260502070005 | 65 | 236 | 2.6 | 7.0 | 0.00 | 0.00 | 0.00 | 54 | 1021.9 |
| 20260502065504 | 64 | 227 | 1.7 | 3.5 | 0.00 | 0.00 | 0.00 | 56 | 1021.9 |
| 20260502065004 | 64 | 233 | 1.7 | 2.6 | 0.00 | 0.00 | 0.00 | 57 | 1022.0 |
| 20260502064504 | 63 | 228 | 1.7 | 3.5 | 0.00 | 0.00 | 0.00 | 62 | 1021.9 |
| 20260502064007 | 62 | 205 | 1.7 | 3.5 | 0.00 | 0.00 | 0.00 | 65 | 1022.1 |
| 20260502063504 | 62 | 109 | 1.7 | 3.5 | 0.00 | 0.00 | 0.00 | 66 | 1022.0 |
| 20260502063006 | 60 | 77 | 0.9 | 2.6 | 0.00 | 0.00 | 0.00 | 68 | 1021.9 |
| 20260502062504 | 60 | 78 | 1.7 | 2.6 | 0.00 | 0.00 | 0.00 | 68 | 1021.8 |
| 20260502062004 | 59 | 79 | 0.9 | 2.6 | 0.00 | 0.00 | 0.00 | 68 | 1021.9 |
| 20260502061504 | 59 | 73 | 0.9 | 2.6 | 0.00 | 0.00 | 0.00 | 68 | 1021.7 |
| 20260502061005 | 58 | 68 | 1.7 | 2.6 | 0.00 | 0.00 | 0.00 | 67 | 1021.9 |
| 20260502060504 | 58 | 67 | 0.9 | 2.6 | 0.00 | 0.00 | 0.00 | 67 | 1021.9 |
| 20260502055504 | 57 | 50 | 1.7 | 4.3 | 0.00 | 0.00 | 0.00 | 65 | 1021.7 |
| 20260502055004 | 56 | 47 | 2.6 | 5.2 | 0.00 | 0.00 | 0.00 | 65 | 1021.9 |
| 20260502054504 | 56 | 52 | 2.6 | 5.2 | 0.00 | 0.00 | 0.00 | 65 | 1021.8 |
| 20260502054005 | 55 | 60 | 2.6 | 4.3 | 0.00 | 0.00 | 0.00 | 66 | 1021.7 |
| 20260502053504 | 54 | 64 | 1.7 | 4.3 | 0.00 | 0.00 | 0.00 | 69 | 1021.6 |
| 20260502053004 | 54 | 70 | 1.7 | 4.3 | 0.00 | 0.00 | 0.00 | 70 | 1021.8 |
| 20260502052004 | 53 | 76 | 1.7 | 3.5 | 0.00 | 0.00 | 0.00 | 69 | 1021.8 |
| 20260502051504 | 53 | 81 | 1.7 | 3.5 | 0.00 | 0.00 | 0.00 | 70 | 1021.8 |
| 20260502051004 | 52 | 79 | 1.7 | 3.5 | 0.00 | 0.00 | 0.00 | 70 | 1021.7 |
| 20260502050504 | 52 | 79 | 1.7 | 3.5 | 0.00 | 0.00 | 0.00 | 71 | 1021.6 |
| 20260502050005 | 52 | 79 | 1.7 | 4.3 | 0.00 | 0.00 | 0.00 | 71 | 1021.6 |
| 20260502045507 | 51 | 72 | 1.7 | 4.3 | 0.00 | 0.00 | 0.00 | 72 | 1021.5 |
| 20260502044504 | 51 | 80 | 2.6 | 4.3 | 0.00 | 0.00 | 0.00 | 73 | 1021.5 |
| 20260502044004 | 50 | 84 | 2.6 | 4.3 | 0.00 | 0.00 | 0.00 | 72 | 1021.5 |
| 20260502043504 | 51 | 80 | 1.7 | 3.5 | 0.00 | 0.00 | 0.00 | 72 | 1021.5 |
| 20260502043004 | 51 | 84 | 1.7 | 3.5 | 0.00 | 0.00 | 0.00 | 72 | 1021.7 |
| 20260502042504 | 50 | 92 | 1.7 | 3.5 | 0.00 | 0.00 | 0.00 | 72 | 1021.5 |
| 20260502042005 | 50 | 91 | 1.7 | 3.5 | 0.00 | 0.00 | 0.00 | 72 | 1021.5 |
| 20260502041504 | 50 | 94 | 0.9 | 2.6 | 0.00 | 0.00 | 0.00 | 73 | 1021.8 |
| 20260502041004 | 50 | 90 | 0.9 | 1.7 | 0.00 | 0.00 | 0.00 | 72 | 1021.5 |
| 20260502040504 | 50 | 95 | 0.9 | 1.7 | 0.00 | 0.00 | 0.00 | 72 | 1021.6 |
| 20260502040004 | 50 | 93 | 0.9 | 1.7 | 0.00 | 0.00 | 0.00 | 72 | 1021.7 |
| 20260502035504 | 50 | 90 | 1.7 | 2.6 | 0.00 | 0.00 | 0.00 | 71 | 1021.4 |
| 20260502035005 | 50 | 86 | 1.7 | 2.6 | 0.00 | 0.00 | 0.00 | 71 | 1021.6 |
| 20260502034504 | 50 | 87 | 1.7 | 3.5 | 0.00 | 0.00 | 0.00 | 70 | 1021.6 |
| 20260502034007 | 50 | 85 | 1.7 | 3.5 | 0.00 | 0.00 | 0.00 | 69 | 1021.5 |
| 20260502033505 | 50 | 83 | 2.6 | 3.5 | 0.00 | 0.00 | 0.00 | 69 | 1021.7 |
| 20260502033004 | 50 | 79 | 2.6 | 3.5 | 0.00 | 0.00 | 0.00 | 68 | 1021.7 |
| 20260502032504 | 51 | 36 | 0.9 | 2.6 | 0.00 | 0.00 | 0.00 | 68 | 1021.8 |
| 20260502032004 | 51 | 259 | 0.9 | 2.6 | 0.00 | 0.00 | 0.00 | 67 | 1021.9 |
| 20260502031504 | 51 | 250 | 0.9 | 2.6 | 0.00 | 0.00 | 0.00 | 67 | 1021.9 |
| 20260502031004 | 51 | 249 | 0.9 | 2.6 | 0.00 | 0.00 | 0.00 | 66 | 1021.8 |
| 20260502030504 | 52 | 243 | 1.7 | 3.5 | 0.00 | 0.00 | 0.00 | 66 | 1021.8 |
| 20260502030004 | 52 | 100 | 2.6 | 5.2 | 0.00 | 0.00 | 0.00 | 66 | 1021.7 |
| 20260502025504 | 52 | 106 | 2.6 | 5.2 | 0.00 | 0.00 | 0.00 | 65 | 1021.6 |
| 20260502025004 | 53 | 90 | 1.7 | 3.5 | 0.00 | 0.00 | 0.00 | 66 | 1021.6 |
| 20260502024504 | 53 | 86 | 1.7 | 3.5 | 0.00 | 0.00 | 0.00 | 65 | 1021.3 |
| 20260502023505 | 53 | 96 | 1.7 | 3.5 | 0.00 | 0.00 | 0.00 | 65 | 1021.5 |
| 20260502023004 | 53 | 101 | 1.7 | 3.5 | 0.00 | 0.00 | 0.00 | 64 | 1021.5 |
| 20260502022504 | 53 | 100 | 2.6 | 4.3 | 0.00 | 0.00 | 0.00 | 63 | 1021.6 |
| 20260502022004 | 53 | 105 | 2.6 | 4.3 | 0.00 | 0.00 | 0.00 | 64 | 1021.5 |
| 20260502021507 | 53 | 108 | 1.7 | 4.3 | 0.00 | 0.00 | 0.00 | 64 | 1021.4 |
| 20260502021004 | 53 | 104 | 1.7 | 3.5 | 0.00 | 0.00 | 0.00 | 64 | 1021.8 |
| 20260502020005 | 53 | 88 | 1.7 | 3.5 | 0.00 | 0.00 | 0.00 | 64 | 1021.6 |
| 20260502015504 | 53 | 84 | 1.7 | 2.6 | 0.00 | 0.00 | 0.00 | 63 | 1021.8 |
| 20260502015004 | 53 | 81 | 1.7 | 3.5 | 0.00 | 0.00 | 0.00 | 62 | 1021.6 |
| 20260502014504 | 53 | 78 | 1.7 | 3.5 | 0.00 | 0.00 | 0.00 | 62 | 1021.7 |
| 20260502014004 | 53 | 83 | 2.6 | 4.3 | 0.00 | 0.00 | 0.00 | 62 | 1021.7 |
| 20260502013507 | 53 | 91 | 2.6 | 4.3 | 0.00 | 0.00 | 0.00 | 63 | 1021.7 |
| 20260502013004 | 53 | 94 | 2.6 | 4.3 | 0.00 | 0.00 | 0.00 | 63 | 1021.9 |
| 20260502012504 | 53 | 100 | 2.6 | 4.3 | 0.00 | 0.00 | 0.00 | 64 | 1022.0 |
| 20260502012004 | 53 | 96 | 2.6 | 3.5 | 0.00 | 0.00 | 0.00 | 64 | 1022.1 |
| 20260502011504 | 53 | 95 | 1.7 | 2.6 | 0.00 | 0.00 | 0.00 | 63 | 1021.9 |
| 20260502010505 | 53 | 89 | 1.7 | 3.5 | 0.00 | 0.00 | 0.00 | 62 | 1022.0 |
| 20260502010004 | 53 | 87 | 1.7 | 3.5 | 0.00 | 0.00 | 0.00 | 62 | 1022.0 |
| 20260502005507 | 53 | 82 | 2.6 | 3.5 | 0.00 | 0.00 | 0.00 | 62 | 1022.1 |
| 20260502005004 | 53 | 81 | 2.6 | 3.5 | 0.00 | 0.00 | 0.00 | 62 | 1022.0 |
| 20260502004507 | 53 | 85 | 1.7 | 3.5 | 0.00 | 0.00 | 0.00 | 62 | 1022.2 |
| 20260502004004 | 53 | 83 | 2.6 | 4.3 | 0.00 | 0.00 | 0.00 | 60 | 1022.1 |
| 20260502003505 | 53 | 78 | 2.6 | 4.3 | 0.00 | 0.00 | 0.00 | 60 | 1022.0 |
| 20260502002505 | 54 | 79 | 2.6 | 3.5 | 0.00 | 0.00 | 0.00 | 58 | 1022.4 |
| 20260502002004 | 54 | 79 | 2.6 | 4.3 | 0.00 | 0.00 | 0.00 | 58 | 1022.1 |
| 20260502001504 | 54 | 81 | 2.6 | 4.3 | 0.00 | 0.00 | 0.00 | 58 | 1022.2 |
| 20260502001004 | 54 | 68 | 1.7 | 3.5 | 0.00 | 0.00 | 0.00 | 58 | 1022.3 |
| 20260502000507 | 54 | 54 | 1.7 | 3.5 | 0.00 | 0.00 | 0.00 | 58 | 1022.4 |
| 20260502000004 | 54 | 50 | 1.7 | 3.5 | 0.00 | 0.00 | 0.00 | 58 | 1022.4 |
| 20260501235507 | 54 | 49 | 0.9 | 2.6 | 0.00 | 0.00 | 0.00 | 58 | 1022.5 |
| 20260501235004 | 54 | 46 | 2.6 | 6.1 | 0.00 | 0.00 | 0.00 | 55 | 1022.4 |
| 20260501234004 | 54 | 57 | 3.5 | 6.1 | 0.00 | 0.00 | 0.00 | 58 | 1022.3 |
| 20260501233504 | 54 | 69 | 3.5 | 6.1 | 0.00 | 0.00 | 0.00 | 58 | 1022.5 |
| 20260501233004 | 54 | 71 | 2.6 | 5.2 | 0.00 | 0.00 | 0.00 | 59 | 1022.5 |
| 20260501232503 | 53 | 75 | 2.6 | 5.2 | 0.00 | 0.00 | 0.00 | 60 | 1022.6 |
| 20260501232004 | 53 | 78 | 2.6 | 4.3 | 0.00 | 0.00 | 0.00 | 59 | 1022.6 |
| 20260501231504 | 53 | 78 | 2.6 | 4.3 | 0.00 | 0.00 | 0.00 | 59 | 1022.6 |
| 20260501231004 | 54 | 81 | 1.7 | 3.5 | 0.00 | 0.00 | 0.00 | 59 | 1022.6 |
| 20260501230504 | 54 | 82 | 1.7 | 3.5 | 0.00 | 0.00 | 0.00 | 59 | 1022.7 |
| 20260501230004 | 54 | 79 | 1.7 | 4.3 | 0.00 | 0.00 | 0.00 | 58 | 1022.7 |
| 20260501225004 | 55 | 73 | 1.7 | 4.3 | 0.00 | 0.00 | 0.00 | 55 | 1022.7 |
| 20260501224504 | 55 | 70 | 2.6 | 4.3 | 0.00 | 0.00 | 0.00 | 55 | 1022.4 |
| 20260501224004 | 55 | 72 | 2.6 | 4.3 | 0.00 | 0.00 | 0.00 | 55 | 1022.7 |
| 20260501222504 | 55 | 67 | 2.6 | 7.0 | 0.00 | 0.00 | 0.00 | 54 | 1022.8 |
| 20260501222005 | 55 | 67 | 2.6 | 4.3 | 0.00 | 0.00 | 0.00 | 54 | 1022.6 |
| 20260501221504 | 55 | 64 | 2.6 | 4.3 | 0.00 | 0.00 | 0.00 | 53 | 1022.6 |
| 20260501221004 | 55 | 65 | 2.6 | 5.2 | 0.00 | 0.00 | 0.00 | 53 | 1022.6 |
| 20260501220504 | 55 | 71 | 2.6 | 5.2 | 0.00 | 0.00 | 0.00 | 53 | 1022.6 |
| 20260501215504 | 55 | 70 | 3.5 | 6.1 | 0.00 | 0.00 | 0.00 | 54 | 1022.8 |